SES-10 (42432 NORAD) Tracking and Keplerian Element Data

This shows tracking and keplerian element data for the satellite.

Feedback or suggestion? Click here.




ElementValue
Catalog42432
NameSES-10
Epoch Orbit599
Epoch Day319.03558128
Epoch Year2018
RAAN351.4555
Inclination0.0116
Eccentricity0.0002569
Argument of Perigee240.6026
Mean Anonmoly127.9473
Mean Motion1.00270061
Decay Rate-2.71E-06
L11 42432U 17017A 18319.03558128 -.00000271 00000-0 00000+0 0 9995
L22 42432 0.0116 351.4555 0002569 240.6026 127.9473 1.00270061 5998

Live tracking and technical data element details for SES-10 (NORAD 42432). SES-10 can be tracked NOW for your location showing map with azimuth and elevation plus other details from your city location.

Track the satellite on the map from your city or location and see movement details for azimuth, elevation, latitude, longitude, range, height, and movement on the map or in text.







IsCatalogInMostPopularTable: catalog: 42432, numindb: 133
Update: records affected: 1



GetName: 42432 SES-10

Hit Count: updated at: Fri, 16 Nov 2018 11:57:10 GMT